Location: Unspecified
(33.9239°N, 118.0544°W)
Time: 07:52:45
(UTC-07:00)

Daily predictions for brighter satellites

Satellite Brightness Start Highest point End
(mag) Time Altitude Azimuth Time Altitude Azimuth Time Altitude Azimuth
Cosmos 2322 3.9 19:42:41 10° SSW 19:48:19 81° WNW 19:54:01 10° NNE
SJ-6B 3.5 19:47:05 10° SE 19:50:48 36° ENE 19:54:29 10° N
Cosmos 2074 Rocket 4.0 19:46:18 10° S 19:52:35 79° E 19:58:53 10° N
Landsat 4 4.3 19:48:57 10° N 19:52:42 62° WNW 19:56:23 10° SSW
HJ-1C 3.7 19:49:49 10° SSE 19:53:01 46° ENE 19:56:15 10° N
SPOT 3 Rocket 3.8 19:48:01 10° S 19:53:11 74° WSW 19:58:22 10° NNW
Cosmos 1939 Rocket 4.4 19:51:35 10° ESE 19:54:08 17° ENE 19:56:41 10° NNE
Thor Agena Rocket 4.0 19:51:40 10° NNE 19:56:38 42° E 20:01:35 10° S
Sakura Rocket 4.0 19:56:10 10° SW 20:00:44 32° S 20:04:18 10° ESE
ATLAS 2A CENTAUR R/B 4.0 19:57:58 10° W 20:05:22 31° SSW 20:08:04 10° SE
Sich 1 3.8 20:02:13 10° NNE 20:06:04 32° E 20:09:53 10° SE
Cosmos 1300 3.6 20:02:58 10° SSW 20:06:42 53° W 20:10:27 10° N
NOSS 2-1 (C) 3.6 20:03:07 10° SW 20:06:42 65° WNW 20:10:27 10° NNE
NOSS 2-1 (D) 3.7 20:04:06 10° SW 20:07:42 62° WNW 20:11:26 10° NNE
Cosmos 1809 Rocket 4.5 20:04:50 10° S 20:10:53 63° E 20:16:59 10° NNE
ATLAS 2AS CENTAUR R/B 3.9 20:10:32 10° NNW 20:17:22 31° NE 20:22:42 14° ESE
Cosmos 2360 Rocket 4.4 20:17:24 10° WSW 20:22:15 29° WNW 20:27:06 10° N
Cosmos 1980 4.2 20:18:06 10° SSE 20:23:13 36° ESE 20:28:21 10° NE
H-2A R/B 2.5 20:20:44 10° W 20:24:17 20° SW 20:25:52 12° S
OAO 2 Rocket 3.4 20:19:03 10° W 20:24:18 86° N 20:28:16 17° E
CZ-2D R/B 3.3 20:21:22 10° S 20:25:09 79° WSW 20:28:58 10° NNW
Cosmos 1633 Rocket 3.5 20:22:31 10° N 20:26:38 41° E 20:29:56 15° SSE
Nadezhda 3 Rocket 4.1 20:20:45 10° N 20:26:59 59° E 20:33:13 10° SSE
Meteor 2-14 Rocket 4.4 20:22:42 10° S 20:28:42 66° E 20:34:45 10° NNE
Cosmos 1455 2.3 20:26:54 10° SSE 20:30:35 49° E 20:34:19 10° NNE
Meteor 1-27 4.3 20:25:18 10° S 20:30:54 55° E 20:36:27 10° NNE
Cosmos 2333 Rocket 2.1 20:26:10 10° SSW 20:31:48 75° ESE 20:37:27 10° NNE
ERS-2 2.1 20:29:12 10° SSE 20:32:51 90° SSE 20:36:32 10° NNW
Cosmos 1515 Rocket 4.3 20:29:50 14° SSE 20:33:08 32° E 20:37:07 10° NNE
Cosmos 2228 Rocket 3.8 20:30:12 15° SSE 20:33:17 32° E 20:37:11 10° NNE
Meteor 2-2 Rocket 4.3 20:30:09 10° S 20:35:57 89° E 20:41:55 10° N
Cosmos 1408 4.4 20:34:05 10° NE 20:36:08 16° ENE 20:36:08 16° ENE
COSMOS 2428 3.5 20:31:27 10° SW 20:37:03 56° WNW 20:42:41 10° NNE
Meteor 2-16 Rocket 4.4 20:32:11 10° S 20:38:14 64° E 20:44:17 10° NNE
Meteor 2-15 Rocket 4.4 20:32:53 10° N 20:39:02 73° E 20:45:08 10° SSE
Cosmos 1892 2.6 20:37:23 10° N 20:41:17 71° E 20:44:02 18° SSE
Cosmos 1844 Rocket 2.6 20:38:13 10° NNW 20:43:55 86° ENE 20:48:26 16° SSE
SL-8 R/B 3.7 20:39:29 10° SW 20:44:16 85° NW 20:49:05 10° NE
Cosmos 1844 3.7 20:42:03 10° NNW 20:47:45 71° ENE 20:51:30 22° SSE
H-2A R/B 3.7 20:48:27 16° ENE 20:48:49 16° ENE 20:51:46 10° NNE
YAOGAN 6 2.6 20:46:47 18° S 20:49:22 79° W 20:53:00 10° NNW
Cosmos 2219 Rocket 2.7 20:44:31 10° SSW 20:50:08 63° WNW 20:55:45 10° NNE
Cosmos 2237 Rocket 2.1 20:45:16 10° S 20:50:45 60° ESE 20:56:17 10° NNE
NOSS 3-3 (A) 4.5 20:45:03 10° SW 20:50:54 60° WNW 20:57:18 10° NNE
NOSS 3-3 (C) 4.5 20:45:09 10° SW 20:51:00 61° WNW 20:57:24 10° NNE
BREEZE-M DEB (TANK) 3.0 20:46:38 10° WNW 20:51:13 78° SW 20:52:42 33° SE
Cosmos 1328 Rocket 3.5 20:48:33 10° S 20:52:57 89° E 20:57:24 10° N
Genesis I 4.4 20:51:20 10° N 20:54:55 29° NE 20:55:26 28° ENE
Cosmos 1371 Rocket 4.4 20:52:01 20° SSE 20:55:10 39° E 21:00:06 10° NNE
Resurs 01 Rocket 1.6 20:53:38 20° SSE 20:56:43 88° W 21:01:11 10° NNW
USA 267 3.6 20:57:22 10° ENE 21:03:21 38° SE 21:09:18 10° SSW
Cosmos 2278 Rocket 2.8 20:58:43 10° N 21:04:02 39° ENE 21:05:28 34° E
OAO 1 4.4 20:58:44 10° W 21:04:15 83° SSW 21:06:22 39° ESE
NOAA 11 4.1 21:02:20 29° SSE 21:05:12 69° ENE 21:10:40 10° N
ATLAS CENTAUR R/B 2.6 21:03:19 10° SW 21:06:44 38° WNW 21:10:16 10° NNE
Cosmos 2251 Rocket 4.2 21:02:14 10° NNW 21:07:29 55° WSW 21:11:37 16° S
Cosmos 1470 Rocket 3.5 21:04:30 10° N 21:08:54 66° E 21:09:51 50° SE
Cosmos 1959 Rocket 4.4 21:07:35 21° SSE 21:11:47 63° E 21:17:49 10° NNE
Cosmos 2056 Rocket 3.7 21:15:54 46° SE 21:16:42 50° ESE 21:21:56 10° NNE
ASTRO E2 4.3 21:15:07 10° SW 21:17:03 23° SSW 21:17:03 23° SSW
Cosmos 2098 Rocket 3.2 21:20:03 58° E 21:20:08 59° E 21:24:15 10° NNE
USA 186 4.3 21:20:57 11° W 21:21:10 11° W 21:21:50 10° WNW
Cosmos 1825 2.8 21:18:32 10° N 21:21:24 45° NNE 21:21:24 45° NNE
deb Centaur AC-2 4.5 21:19:07 10° W 21:23:24 48° S 21:23:24 48° S
Cosmos 2218 Rocket 3.9 21:22:07 19° S 21:26:49 85° E 21:33:14 10° N
SL-08 R/B 4.4 21:26:47 38° SSE 21:29:19 70° E 21:35:40 10° N
Cosmos 1624 Rocket 3.8 21:32:55 59° S 21:33:53 80° ESE 21:39:05 10° NNE
Cosmos 1933 Rocket 3.7 21:33:13 10° NNW 21:37:34 67° W 21:37:45 66° WSW
Cosmos 1869 3.7 21:38:20 60° NW 21:38:20 60° NW 21:41:50 10° N
Cosmos 2366 rocket 3.9 21:36:09 28° S 21:39:36 83° W 21:45:53 10° N
SL-16 R/B 2.4 21:41:17 52° ENE 21:41:17 52° ENE 21:45:49 10° NNE
Cosmos 1151 Rocket 4.4 21:38:12 17° SW 21:40:59 36° W 21:44:57 10° NNW
Terra 4.3 21:43:59 10° NE 21:43:59 10° NE 21:44:03 10° NE
ARGOS 3.0 21:48:41 84° E 21:48:42 84° ENE 21:54:04 10° N
GEOS 3 Rocket 3.6 21:43:59 10° NNE 21:49:20 85° NW 21:52:20 27° SW
MetOp-B 4.1 21:53:32 77° NNE 21:53:32 77° NNE 21:58:35 10° N
SPOT 5 4.4 21:58:33 24° NNE 21:58:33 24° NNE 22:00:38 10° N
Cosmos 1339 Rocket 4.4 21:55:15 10° N 22:01:22 81° W 22:01:50 75° SSW
ATLAS 2AS CENTAUR R/B 3.2 22:01:14 10° NW 22:08:42 54° WSW 22:10:10 47° SSW
Cosmos 2344 3.4 22:08:24 69° SSE 22:09:02 73° ESE 22:16:57 10° NE
Meteor 2-10 Rocket 4.3 22:08:14 43° WSW 22:09:39 53° W 22:15:19 10° N
Cosmos 2297 4.4 22:09:49 10° NNW 22:14:04 47° NNE 22:14:04 47° NNE
H-2A R/B 3.1 22:29:05 40° WNW 22:29:05 40° WNW 22:32:41 10° NNW
ERS-1 Rocket 4.2 22:30:13 40° NW 22:30:13 40° NW 22:33:39 10° NNW
NOSS 3-4 (A) 3.9 22:32:01 10° NNW 22:38:28 71° N 22:38:28 71° N
NOSS 3-4 (C) 3.9 22:32:07 10° NNW 22:38:33 71° N 22:38:33 71° N
USA 267 3.9 22:40:05 10° NNE 22:46:22 52° NW 22:52:39 10° WSW
Cosmos 2278 Rocket 4.0 22:43:25 10° NW 22:47:20 23° W 22:47:20 23° W
ATLAS 5 CENTAUR R/B 4.4 22:51:18 10° N 22:54:11 17° NNE 22:54:11 17° NNE
ATLAS 2A CENTAUR R/B 4.3 22:43:31 10° WSW 22:53:55 39° SW 22:53:55 39° SW
Terra 4.5 23:22:51 16° NNW 23:22:51 16° NNW 23:23:50 10° NNW
